RYR322N LPPR-LPFR

Flight info

Callsign RYR322N
Flight time 0h 49m
Altitude 37000
Route MANIK DCT INBOM DCT ALAGU
Aircraft B738/M-SDE2E3FGHIRWXY/LB1

Departure

Time 2026-05-06 15:39
Airport Francisco de Sá Carneiro Airport (LPPR)

Arrival

Time 2026-05-06 16:28
Airport Faro - Gago Coutinho International Airport (LPFR)
Time Latitude Longitude Altitude Speed Heading
2026-05-06 15:17 41.23923 -8.67318 244 ft 0 kts 123°
2026-05-06 15:30 41.23925 -8.67322 244 ft 3 kts 124°
2026-05-06 15:30 41.23940 -8.67351 243 ft 4 kts 128°
2026-05-06 15:30 41.23958 -8.67377 242 ft 4 kts 135°
2026-05-06 15:31 41.23978 -8.67400 241 ft 4 kts 150°
2026-05-06 15:31 41.24001 -8.67410 241 ft 4 kts 198°
2026-05-06 15:31 41.24008 -8.67406 241 ft 2 kts 211°
2026-05-06 15:33 41.24002 -8.67412 241 ft 3 kts 211°
2026-05-06 15:34 41.23977 -8.67431 240 ft 6 kts 211°
2026-05-06 15:34 41.23945 -8.67478 238 ft 7 kts 242°
2026-05-06 15:34 41.23931 -8.67552 237 ft 10 kts 258°
2026-05-06 15:34 41.23917 -8.67642 232 ft 9 kts 258°
2026-05-06 15:35 41.23902 -8.67739 225 ft 8 kts 260°
2026-05-06 15:35 41.23900 -8.67754 223 ft 0 kts 260°
2026-05-06 15:35 41.23898 -8.67769 222 ft 5 kts 260°
2026-05-06 15:36 41.23890 -8.67830 222 ft 8 kts 260°
2026-05-06 15:36 41.23905 -8.67889 222 ft 7 kts 339°
2026-05-06 15:36 41.23952 -8.67902 220 ft 0 kts 348°
2026-05-06 15:37 41.23952 -8.67901 220 ft 0 kts 348°
2026-05-06 15:38 41.23959 -8.67904 220 ft 5 kts 348°
2026-05-06 15:38 41.24138 -8.67952 213 ft 68 kts 349°
2026-05-06 15:38 41.24904 -8.68153 241 ft 150 kts 347°
2026-05-06 15:39 41.26002 -8.68443 1134 ft 163 kts 347°
2026-05-06 15:39 41.27121 -8.68737 2276 ft 179 kts 347°
2026-05-06 15:39 41.28466 -8.69088 2692 ft 212 kts 346°
2026-05-06 15:39 41.29973 -8.69486 3089 ft 230 kts 347°
2026-05-06 15:40 41.31551 -8.69911 3736 ft 234 kts 347°
2026-05-06 15:40 41.33170 -8.70355 4342 ft 240 kts 348°
2026-05-06 15:40 41.34815 -8.70813 5001 ft 244 kts 348°
2026-05-06 15:40 41.36490 -8.71280 5625 ft 247 kts 348°
2026-05-06 15:41 41.38187 -8.71755 6270 ft 251 kts 349°
2026-05-06 15:41 41.39920 -8.71731 6829 ft 253 kts 21°
2026-05-06 15:41 41.41294 -8.70365 7440 ft 252 kts 57°
2026-05-06 15:41 41.41909 -8.68202 8062 ft 253 kts 84°
2026-05-06 15:42 41.41741 -8.65826 8447 ft 270 kts 110°
2026-05-06 15:42 41.40718 -8.63706 9107 ft 277 kts 137°
2026-05-06 15:42 41.39062 -8.62397 9878 ft 282 kts 161°
2026-05-06 15:42 41.37123 -8.61760 10392 ft 296 kts 167°
2026-05-06 15:43 41.35011 -8.61229 10570 ft 320 kts 169°
2026-05-06 15:43 41.32770 -8.60710 11061 ft 331 kts 170°
2026-05-06 15:43 41.30506 -8.60189 11718 ft 337 kts 170°
2026-05-06 15:43 41.28183 -8.59647 12466 ft 341 kts 171°
2026-05-06 15:44 41.25824 -8.59087 13203 ft 346 kts 171°
2026-05-06 15:44 41.23434 -8.58511 13900 ft 353 kts 172°
2026-05-06 15:44 41.21008 -8.57922 14636 ft 355 kts 171°
2026-05-06 15:44 41.18570 -8.57323 15417 ft 357 kts 171°
2026-05-06 15:45 41.16113 -8.56719 16184 ft 360 kts 171°
2026-05-06 15:45 41.13639 -8.56108 16921 ft 364 kts 172°
2026-05-06 15:45 41.11134 -8.55489 17648 ft 367 kts 171°
2026-05-06 15:45 41.08611 -8.54866 18378 ft 371 kts 172°
2026-05-06 15:46 41.06066 -8.54237 19050 ft 373 kts 172°
2026-05-06 15:46 41.03503 -8.53604 19700 ft 376 kts 172°
2026-05-06 15:46 41.00919 -8.52967 20330 ft 379 kts 172°
2026-05-06 15:46 40.98345 -8.52333 20915 ft 383 kts 171°
2026-05-06 15:47 40.95713 -8.51683 21555 ft 385 kts 172°
2026-05-06 15:47 40.93074 -8.51033 22189 ft 388 kts 172°
2026-05-06 15:47 40.90412 -8.50378 22811 ft 390 kts 172°
2026-05-06 15:47 40.87730 -8.49719 23377 ft 394 kts 172°
2026-05-06 15:48 40.85022 -8.49055 23874 ft 397 kts 172°
2026-05-06 15:48 40.82293 -8.48385 24384 ft 399 kts 172°
2026-05-06 15:48 40.79552 -8.47712 24912 ft 402 kts 172°
2026-05-06 15:48 40.76793 -8.47036 25380 ft 404 kts 172°
2026-05-06 15:49 40.74016 -8.46356 25859 ft 406 kts 172°
2026-05-06 15:49 40.71264 -8.45683 26325 ft 408 kts 172°
2026-05-06 15:49 40.68459 -8.44997 26789 ft 411 kts 172°
2026-05-06 15:49 40.65632 -8.44307 27243 ft 413 kts 172°
2026-05-06 15:50 40.62799 -8.43616 27690 ft 415 kts 172°
2026-05-06 15:50 40.59947 -8.42921 28111 ft 417 kts 172°
2026-05-06 15:50 40.57086 -8.42224 28538 ft 419 kts 172°
2026-05-06 15:50 40.54207 -8.41523 28955 ft 422 kts 172°
2026-05-06 15:51 40.51309 -8.40819 29358 ft 424 kts 172°
2026-05-06 15:51 40.48402 -8.40113 29743 ft 426 kts 172°
2026-05-06 15:51 40.45485 -8.39405 30110 ft 428 kts 172°
2026-05-06 15:51 40.42545 -8.38693 30408 ft 430 kts 173°
2026-05-06 15:52 40.39592 -8.37978 30710 ft 433 kts 173°
2026-05-06 15:52 40.36670 -8.37270 31085 ft 432 kts 173°
2026-05-06 15:52 40.33676 -8.36545 31499 ft 432 kts 173°
2026-05-06 15:52 40.30761 -8.35840 31849 ft 432 kts 173°
2026-05-06 15:53 40.27798 -8.35125 32181 ft 433 kts 173°
2026-05-06 15:53 40.24837 -8.34411 32533 ft 433 kts 173°
2026-05-06 15:53 40.21872 -8.33696 32851 ft 434 kts 173°
2026-05-06 15:53 40.18893 -8.32980 33125 ft 436 kts 174°
2026-05-06 15:54 40.15912 -8.32263 33464 ft 436 kts 174°
2026-05-06 15:54 40.12926 -8.31545 33811 ft 436 kts 174°
2026-05-06 15:54 40.09931 -8.30825 34124 ft 436 kts 174°
2026-05-06 15:54 40.06941 -8.30108 34389 ft 437 kts 174°
2026-05-06 15:55 40.04957 -8.29632 34567 ft 437 kts 174°
2026-05-06 15:55 40.01962 -8.28915 34825 ft 438 kts 174°
2026-05-06 15:55 39.98963 -8.28197 35072 ft 439 kts 174°
2026-05-06 15:55 39.95959 -8.27479 35332 ft 439 kts 174°
2026-05-06 15:56 39.92951 -8.26760 35577 ft 439 kts 174°
2026-05-06 15:56 39.89942 -8.26042 35803 ft 441 kts 174°
2026-05-06 15:56 39.86922 -8.25322 36064 ft 441 kts 174°
2026-05-06 15:56 39.83903 -8.24602 36353 ft 440 kts 174°
2026-05-06 15:57 39.80906 -8.23889 36608 ft 440 kts 174°
2026-05-06 15:57 39.77889 -8.23171 36842 ft 441 kts 174°
2026-05-06 15:57 39.71801 -8.21728 36908 ft 447 kts 174°
2026-05-06 15:58 39.65692 -8.20278 36912 ft 443 kts 174°
2026-05-06 15:58 39.59718 -8.18860 36909 ft 438 kts 174°
2026-05-06 15:59 39.53716 -8.17443 36925 ft 438 kts 174°
2026-05-06 15:59 39.47718 -8.16030 36909 ft 438 kts 174°
2026-05-06 16:00 39.41708 -8.14616 36910 ft 439 kts 174°
2026-05-06 16:00 39.35793 -8.13226 36913 ft 439 kts 174°
2026-05-06 16:01 39.29764 -8.11812 36892 ft 441 kts 174°
2026-05-06 16:01 39.26845 -8.11129 36553 ft 443 kts 174°
2026-05-06 16:01 39.23839 -8.10423 36247 ft 436 kts 174°
2026-05-06 16:02 39.20864 -8.09725 35861 ft 432 kts 174°
2026-05-06 16:02 39.17917 -8.09034 35475 ft 429 kts 174°
2026-05-06 16:02 39.14990 -8.08349 35092 ft 425 kts 175°
2026-05-06 16:02 39.12085 -8.07671 34714 ft 423 kts 175°
2026-05-06 16:03 39.09198 -8.06999 34326 ft 420 kts 175°
2026-05-06 16:03 39.06343 -8.06337 34045 ft 414 kts 175°
2026-05-06 16:03 39.03517 -8.05688 33818 ft 422 kts 175°
2026-05-06 16:03 39.00578 -8.05019 33569 ft 435 kts 175°
2026-05-06 16:04 38.97557 -8.04329 33315 ft 444 kts 174°
2026-05-06 16:04 38.94498 -8.03625 33048 ft 447 kts 174°
2026-05-06 16:04 38.91442 -8.02914 32775 ft 444 kts 174°
2026-05-06 16:04 38.88406 -8.02206 32508 ft 443 kts 174°
2026-05-06 16:05 38.85381 -8.01501 32242 ft 440 kts 174°
2026-05-06 16:05 38.82376 -8.00802 31966 ft 438 kts 174°
2026-05-06 16:05 38.79389 -8.00110 31703 ft 435 kts 174°
2026-05-06 16:05 38.76458 -7.99431 31391 ft 430 kts 174°
2026-05-06 16:06 38.73496 -7.98746 30986 ft 425 kts 174°
2026-05-06 16:06 38.70632 -7.98084 30556 ft 422 kts 174°
2026-05-06 16:06 38.67749 -7.97420 30125 ft 418 kts 174°
2026-05-06 16:06 38.64893 -7.96762 29633 ft 415 kts 174°
2026-05-06 16:07 38.62063 -7.96112 29122 ft 411 kts 174°
2026-05-06 16:07 38.59261 -7.95467 28686 ft 406 kts 174°
2026-05-06 16:07 38.56490 -7.94830 28223 ft 403 kts 174°
2026-05-06 16:07 38.53747 -7.94201 27787 ft 399 kts 174°
2026-05-06 16:08 38.51028 -7.93577 27329 ft 396 kts 174°
2026-05-06 16:08 38.48331 -7.92960 26884 ft 393 kts 174°
2026-05-06 16:08 38.45644 -7.92345 26448 ft 390 kts 174°
2026-05-06 16:08 38.42972 -7.91733 26016 ft 387 kts 174°
2026-05-06 16:09 38.40373 -7.91139 25599 ft 385 kts 173°
2026-05-06 16:09 38.37750 -7.90541 25170 ft 385 kts 173°
2026-05-06 16:09 38.35060 -7.89931 24768 ft 400 kts 173°
2026-05-06 16:09 38.32291 -7.89304 24302 ft 408 kts 173°
2026-05-06 16:10 38.29490 -7.88667 23841 ft 408 kts 173°
2026-05-06 16:10 38.26701 -7.88029 23357 ft 404 kts 173°
2026-05-06 16:10 38.23946 -7.87398 22833 ft 400 kts 173°
2026-05-06 16:10 38.21219 -7.86775 22355 ft 395 kts 173°
2026-05-06 16:11 38.18533 -7.86163 21913 ft 391 kts 173°
2026-05-06 16:11 38.15871 -7.85557 21437 ft 387 kts 173°
2026-05-06 16:11 38.13257 -7.84964 21001 ft 383 kts 173°
2026-05-06 16:11 38.10727 -7.84391 20582 ft 381 kts 172°
2026-05-06 16:12 38.08113 -7.83799 20153 ft 382 kts 172°
2026-05-06 16:12 38.05492 -7.83207 19725 ft 382 kts 172°
2026-05-06 16:12 38.02884 -7.82617 19287 ft 379 kts 172°
2026-05-06 16:12 38.00288 -7.82030 18854 ft 378 kts 172°
2026-05-06 16:13 37.97706 -7.81446 18417 ft 376 kts 172°
2026-05-06 16:13 37.95132 -7.80865 17948 ft 375 kts 172°
2026-05-06 16:13 37.92573 -7.80287 17462 ft 373 kts 172°
2026-05-06 16:13 37.90028 -7.79713 17009 ft 370 kts 172°
2026-05-06 16:14 37.87532 -7.79150 16592 ft 367 kts 172°
2026-05-06 16:14 37.85026 -7.78586 16163 ft 365 kts 172°
2026-05-06 16:14 37.82531 -7.78025 15746 ft 362 kts 172°
2026-05-06 16:14 37.80055 -7.77468 15332 ft 360 kts 172°
2026-05-06 16:15 37.77597 -7.76915 14912 ft 358 kts 172°
2026-05-06 16:15 37.75155 -7.76367 14516 ft 356 kts 172°
2026-05-06 16:15 37.72721 -7.75821 14117 ft 354 kts 172°
2026-05-06 16:15 37.70302 -7.75278 13720 ft 353 kts 172°
2026-05-06 16:16 37.67889 -7.74738 13277 ft 352 kts 171°
2026-05-06 16:16 37.65481 -7.74198 12855 ft 349 kts 171°
2026-05-06 16:16 37.63112 -7.73668 12460 ft 345 kts 171°
2026-05-06 16:16 37.60768 -7.73143 12084 ft 340 kts 171°
2026-05-06 16:17 37.58507 -7.72638 11699 ft 337 kts 171°
2026-05-06 16:17 37.56180 -7.72118 11323 ft 343 kts 171°
2026-05-06 16:17 37.53817 -7.71592 10940 ft 354 kts 171°
2026-05-06 16:17 37.51376 -7.71049 10530 ft 358 kts 171°
2026-05-06 16:18 37.48931 -7.70503 10295 ft 353 kts 171°
2026-05-06 16:18 37.46518 -7.69965 10149 ft 352 kts 170°
2026-05-06 16:18 37.44108 -7.69428 10001 ft 353 kts 171°
2026-05-06 16:18 37.41675 -7.68886 9797 ft 357 kts 171°
2026-05-06 16:19 37.39234 -7.68343 9391 ft 355 kts 171°
2026-05-06 16:19 37.36815 -7.67805 9018 ft 352 kts 171°
2026-05-06 16:19 37.34404 -7.67270 8660 ft 353 kts 171°
2026-05-06 16:19 37.32020 -7.66741 8310 ft 353 kts 171°
2026-05-06 16:20 37.29600 -7.66204 7955 ft 353 kts 170°
2026-05-06 16:20 37.27176 -7.65666 7598 ft 354 kts 171°
2026-05-06 16:20 37.24749 -7.65128 7237 ft 354 kts 170°
2026-05-06 16:20 37.22318 -7.64590 6884 ft 354 kts 170°
2026-05-06 16:21 37.19885 -7.64052 6520 ft 356 kts 169°
2026-05-06 16:21 37.17473 -7.63519 6155 ft 357 kts 169°
2026-05-06 16:21 37.15064 -7.62985 5792 ft 355 kts 169°
2026-05-06 16:21 37.12657 -7.62466 5409 ft 348 kts 172°
2026-05-06 16:22 37.10283 -7.62553 5195 ft 337 kts 192°
2026-05-06 16:22 37.08061 -7.63332 5045 ft 326 kts 198°
2026-05-06 16:22 37.05914 -7.64194 4912 ft 324 kts 199°
2026-05-06 16:22 37.03760 -7.65046 4779 ft 323 kts 198°
2026-05-06 16:23 37.01642 -7.65864 4593 ft 313 kts 198°
2026-05-06 16:23 36.99698 -7.66865 4307 ft 290 kts 218°
2026-05-06 16:23 36.98532 -7.68650 4168 ft 259 kts 251°
2026-05-06 16:23 36.98246 -7.70745 3928 ft 237 kts 273°
2026-05-06 16:24 36.98270 -7.72761 3621 ft 228 kts 277°
2026-05-06 16:24 36.98398 -7.74713 3321 ft 221 kts 280°
2026-05-06 16:24 36.98628 -7.76568 3034 ft 212 kts 282°
2026-05-06 16:24 36.98880 -7.78363 2763 ft 208 kts 282°
2026-05-06 16:25 36.99129 -7.80121 2501 ft 211 kts 282°
2026-05-06 16:25 36.99380 -7.81920 2231 ft 208 kts 283°
2026-05-06 16:25 36.99625 -7.83668 1950 ft 206 kts 282°
2026-05-06 16:25 36.99868 -7.85401 1686 ft 199 kts 282°
2026-05-06 16:26 37.00096 -7.87033 1419 ft 181 kts 282°
2026-05-06 16:26 37.00304 -7.88510 1181 ft 164 kts 280°
2026-05-06 16:26 37.00482 -7.89778 982 ft 146 kts 279°
2026-05-06 16:26 37.00654 -7.90999 825 ft 143 kts 279°
2026-05-06 16:27 37.00831 -7.92231 639 ft 140 kts 278°
2026-05-06 16:27 37.00991 -7.93398 430 ft 133 kts 278°
2026-05-06 16:27 37.01149 -7.94534 248 ft 132 kts 278°
2026-05-06 16:27 37.01310 -7.95642 95 ft 127 kts 277°
2026-05-06 16:28 37.01461 -7.96704 26 ft 116 kts 278°
2026-05-06 16:28 37.01566 -7.97468 18 ft 59 kts 279°
2026-05-06 16:28 37.01605 -7.97731 17 ft 15 kts 280°
2026-05-06 16:28 37.01644 -7.97845 19 ft 15 kts 335°
2026-05-06 16:29 37.01728 -7.97802 19 ft 14 kts 57°
2026-05-06 16:29 37.01766 -7.97689 19 ft 14 kts 77°
2026-05-06 16:29 37.01767 -7.97574 19 ft 13 kts 99°
2026-05-06 16:29 37.01753 -7.97466 19 ft 13 kts 100°
2026-05-06 16:30 37.01737 -7.97358 19 ft 12 kts 100°
2026-05-06 16:30 37.01727 -7.97287 21 ft 12 kts 100°
2026-05-06 16:30 37.01707 -7.97150 19 ft 12 kts 100°
2026-05-06 16:30 37.01693 -7.97050 19 ft 12 kts 99°
2026-05-06 16:31 37.01680 -7.96953 19 ft 11 kts 99°
2026-05-06 16:31 37.01667 -7.96858 19 ft 11 kts 99°
2026-05-06 16:31 37.01652 -7.96763 19 ft 12 kts 98°
2026-05-06 16:31 37.01636 -7.96656 19 ft 13 kts 101°
2026-05-06 16:32 37.01647 -7.96553 20 ft 13 kts 39°
2026-05-06 16:32 37.01730 -7.96526 19 ft 12 kts 11°
2026-05-06 16:32 37.01793 -7.96576 19 ft 12 kts 283°
2026-05-06 16:32 37.01816 -7.96636 19 ft 4 kts 342°
2026-05-06 16:33 37.01846 -7.96632 19 ft 4 kts
2026-05-06 16:33 37.01876 -7.96625 21 ft 4 kts 11°
2026-05-06 16:33 37.01879 -7.96624 21 ft 0 kts 11°